Wind_Speed
50 51 49 45 47 47 45 45 47 51 55 56 57 55 43 34 31 28 27 25 21 20 21 21 20 19 17 16 17 17 19 21 22 23 24 25 25 26 26 27 28 28 29 31 32 33 34 34 34 34 34 34 34 33 30 30 32 30 28 27 29 31 32 33 33 33 32 30 27 26 27 27 27 28 29 32 36 37 34 32 31 31 32 31 31
44 43 41 42 47 51 50 49 51 53 53 55 57 53 41 36 34 29 29 28 25 24 24 24 22 20 18 16 15 15 19 22 22 23 25 26 25 26 26 27 29 30 32 33 34 34 34 34 34 34 33 34 34 34 33 31 32 31 29 27 28 31 32 32 33 32 31 29 28 27 27 27 27 28 29 30 35 39 38 35 31 30 31 31 30
40 37 36 37 42 47 49 51 52 50 49 53 56 50 39 38 36 30 28 27 27 25 25 25 23 22 19 15 13 15 18 22 24 25 24 26 27 27 28 29 31 33 34 35 35 35 35 35 35 35 35 35 35 36 36 34 33 33 32 29 29 31 32 31 31 30 30 29 28 28 28 28 29 29 30 30 33 38 42 39 34 31 31 32 32
42 40 37 36 39 44 46 47 46 46 49 55 55 49 42 39 36 31 27 26 26 25 24 24 23 21 19 17 14 15 18 20 24 26 25 27 30 31 32 33 34 35 35 36 37 37 37 37 37 38 38 39 38 38 38 37 36 34 34 32 31 32 33 32 31 30 29 29 29 29 28 29 30 31 31 32 32 36 41 43 40 35 33 33 33
42 40 38 38 42 43 43 43 46 52 59 60 58 54 45 39 37 31 26 25 25 25 24 22 20 16 15 18 18 18 19 20 25 28 29 31 32 32 33 34 35 34 35 38 39 40 41 41 41 41 41 40 40 39 38 37 37 36 35 35 34 34 34 34 33 32 31 31 31 31 31 31 32 33 34 34 33 35 38 43 43 40 37 34 33
44 41 39 41 45 45 47 52 58 66 68 63 58 51 42 37 36 31 26 24 23 24 23 21 19 14 12 16 20 22 19 20 26 29 30 31 32 31 32 33 34 33 36 39 39 40 41 41 40 39 39 39 38 38 38 37 37 36 37 37 37 37 37 37 37 35 34 33 33 33 33 34 34 35 36 36 35 35 36 39 43 44 42 38 36
46 46 45 46 48 51 55 63 69 72 67 59 52 44 38 36 33 28 24 23 23 23 20 17 17 14 11 15 20 23 22 22 24 27 29 31 32 32 32 34 34 34 37 38 38 37 36 37 36 37 38 38 37 36 37 38 38 38 39 39 40 41 41 41 41 39 38 37 36 35 34 34 35 37 38 37 36 35 34 35 38 43 45 43 39
49 50 50 52 54 58 63 67 68 65 59 52 46 40 37 36 32 27 22 21 21 19 17 15 16 15 13 17 22 23 25 26 27 28 29 31 31 31 32 31 30 32 34 36 38 38 38 38 38 37 37 37 37 37 37 38 39 40 41 42 42 43 43 44 44 43 42 41 40 38 36 35 35 36 36 37 36 35 35 34 35 37 43 46 43
52 52 54 57 59 61 63 62 58 54 52 47 42 39 37 38 36 31 25 21 20 17 17 14 15 19 17 19 20 19 21 26 29 30 30 30 31 32 34 32 31 34 35 35 35 36 38 37 36 35 35 35 36 37 37 37 38 39 40 42 42 43 44 44 45 45 45 44 42 39 37 37 37 37 37 37 37 37 37 38 37 36 38 42 45
55 57 59 60 59 57 55 52 50 49 47 44 41 39 38 39 39 36 31 27 23 19 17 13 13 18 19 20 20 19 22 25 27 29 30 31 32 34 36 37 38 39 40 40 37 34 34 33 32 30 31 33 36 37 38 37 38 39 40 41 41 42 43 44 44 44 44 43 42 40 39 39 39 40 41 42 41 39 39 39 40 40 39 39 43
59 59 58 57 54 52 49 47 46 45 43 41 39 38 37 38 39 37 35 31 27 23 21 17 17 19 22 23 22 21 23 25 26 27 27 29 31 33 35 37 38 38 38 39 37 35 34 33 32 29 28 29 31 34 36 37 38 39 41 42 43 44 44 45 45 44 44 44 43 43 43 43 43 44 45 45 44 42 41 41 41 42 42 41 42
58 57 55 53 51 48 46 45 43 42 41 39 37 36 35 35 35 34 33 31 28 26 25 23 21 22 24 25 23 24 26 27 27 27 27 28 31 33 35 36 36 35 33 32 32 33 33 32 30 29 29 28 28 30 32 34 36 37 39 41 42 43 44 45 46 46 46 46 46 45 45 45 45 45 45 44 43 43 43 43 43 43 44 44 44
55 53 52 50 48 46 44 42 41 40 39 38 38 37 34 35 34 31 29 30 28 27 28 29 26 25 26 27 26 27 27 27 26 26 28 30 32 34 36 37 36 34 30 29 30 31 30 29 28 28 28 28 28 29 30 31 33 34 36 38 39 40 40 41 42 42 42 43 43 43 43 44 44 43 42 42 42 42 43 43 44 45 45 46 46
52 50 48 46 44 43 41 40 40 39 38 38 41 39 35 36 37 34 31 31 31 30 30 32 32 31 31 32 33 32 29 29 29 29 29 29 29 32 34 35 35 33 31 30 32 33 30 29 28 28 29 29 28 29 29 30 30 31 33 35 35 36 37 37 38 38 38 39 39 39 40 40 41 41 40 40 41 42 42 43 44 45 45 45 46
49 47 45 43 42 40 39 38 39 39 39 40 43 43 38 37 39 39 35 32 32 33 33 35 36 37 37 38 38 37 34 32 33 32 31 30 31 33 35 35 34 33 32 32 33 34 32 31 30 30 31 31 31 32 31 29 26 26 27 29 31 33 32 31 33 35 36 36 36 37 37 38 39 39 39 39 40 42 42 43 44 44 44 44 45
46 44 43 42 40 38 38 38 38 39 40 42 45 46 44 42 43 43 41 37 34 34 35 37 38 39 39 39 39 37 35 34 34 34 32 31 32 34 36 37 36 34 32 32 34 34 34 34 34 33 32 33 33 33 32 28 26 26 28 30 32 34 34 32 32 33 34 35 36 37 38 39 39 39 39 40 41 42 42 43 44 43 43 43 44
45 44 42 41 39 38 37 37 38 38 39 42 45 47 47 44 44 45 45 44 40 36 36 38 38 38 37 38 39 39 38 37 36 36 35 33 32 35 37 38 39 38 35 34 35 36 37 38 39 40 40 41 40 39 38 36 36 37 38 39 38 37 38 39 39 38 37 38 38 39 39 40 40 41 41 41 42 43 42 43 43 43 42 42 43
45 43 42 41 39 38 37 36 37 38 39 41 44 48 49 47 45 46 48 49 46 41 39 40 40 39 38 37 38 39 39 38 37 37 38 37 36 38 38 37 38 39 37 36 35 36 38 41 43 44 45 45 44 43 43 43 44 46 47 48 44 41 41 43 44 44 42 40 40 39 38 39 39 40 40 41 42 42 42 42 42 42 43 43 43
44 42 42 40 38 37 37 36 35 37 39 40 41 46 51 53 51 49 49 50 50 48 45 43 42 41 40 40 39 40 40 40 39 38 38 39 37 37 37 37 38 40 39 39 38 38 39 41 42 42 42 41 41 41 42 43 44 46 48 50 49 47 45 46 47 48 46 44 42 41 40 38 38 38 38 38 40 41 41 40 40 41 42 43 42
41 39 38 38 37 36 36 36 35 35 38 40 41 42 46 52 55 55 54 53 53 53 51 49 47 43 41 41 43 44 44 44 42 41 41 40 37 36 37 38 40 41 42 42 41 41 42 43 44 43 42 41 41 42 44 45 45 46 47 48 50 51 50 50 50 50 50 49 46 44 43 42 40 37 36 38 39 40 41 40 40 39 39 41 40
37 36 35 35 36 35 35 35 35 35 37 39 41 42 42 45 50 53 55 56 56 56 54 53 52 51 48 47 47 47 46 46 45 44 45 43 39 38 39 41 42 43 44 44 44 44 45 46 46 45 44 44 44 45 45 46 46 46 47 48 50 51 53 53 52 51 50 51 50 49 47 46 44 40 37 38 39 39 40 41 40 39 38 39 40
35 34 33 34 34 35 34 33 34 34 35 37 40 42 43 43 45 47 50 52 54 54 54 54 53 54 54 53 51 50 48 45 44 44 44 44 43 41 40 42 44 44 45 46 46 46 46 47 47 47 46 46 45 45 44 43 42 43 44 46 47 48 51 53 53 53 50 50 50 51 51 49 48 45 40 39 40 38 38 40 41 40 40 41 41
32 32 31 31 32 32 32 32 32 33 34 35 37 40 43 44 45 46 47 49 50 51 53 54 54 55 56 56 55 53 50 47 45 44 44 45 46 44 42 42 42 43 43 45 47 47 47 47 48 49 48 46 45 44 42 40 40 41 41 41 42 43 45 47 50 52 52 50 49 50 52 53 51 49 45 42 42 40 37 37 40 42 43 45 45
29 28 28 28 28 29 29 29 29 29 30 32 34 36 39 41 44 45 47 48 50 51 52 54 55 56 56 57 57 54 51 49 46 44 43 44 45 46 44 42 41 42 42 44 46 48 49 49 49 48 47 45 44 43 41 40 39 39 39 38 39 39 39 41 43 46 49 50 49 48 50 53 53 53 50 45 43 43 40 37 38 42 45 46 47
26 25 25 25 25 25 26 26 26 26 26 27 28 30 32 35 37 40 43 45 47 49 50 52 53 54 54 54 54 53 51 49 46 43 42 42 44 46 46 43 42 43 44 45 46 47 47 46 46 45 44 43 43 42 41 41 40 38 38 37 37 36 36 36 38 40 44 46 48 47 47 49 51 51 52 50 45 44 43 39 37 40 45 47 48
24 23 23 23 23 23 24 25 24 24 24 25 25 25 27 28 29 32 34 36 38 41 43 45 46 48 49 50 50 50 49 48 46 45 44 43 43 45 45 44 43 43 44 45 45 45 44 42 42 42 43 43 43 42 41 41 40 39 39 38 37 36 35 35 35 36 38 41 45 46 46 48 49 50 51 52 49 46 45 43 40 39 42 46 49
24 23 23 23 23 23 24 24 24 25 24 24 24 24 25 25 26 27 28 30 31 33 34 36 38 40 43 45 46 47 48 48 48 48 47 45 45 45 45 44 44 43 44 44 44 44 43 42 42 42 43 44 43 43 42 41 41 40 40 40 39 38 37 36 35 35 36 38 41 44 45 46 48 50 51 52 53 51 48 47 44 41 42 45 49
28 27 27 26 26 25 25 26 26 27 27 26 26 25 26 26 26 27 28 29 30 31 32 33 34 36 38 40 42 44 46 47 48 50 50 50 49 48 48 48 47 47 47 47 47 47 47 46 46 45 45 46 45 44 44 43 42 42 41 40 40 40 39 38 37 36 35 36 38 41 44 44 45 46 49 51 53 54 53 50 48 46 45 46 49
34 34 32 31 29 28 27 28 28 29 29 29 28 28 28 27 27 27 28 28 29 30 32 33 34 35 36 37 39 40 41 43 46 48 50 51 52 51 51 51 51 52 52 52 52 52 52 51 50 49 48 48 47 46 46 45 44 43 42 42 41 41 40 39 38 38 37 36 36 38 41 43 44 44 46 48 51 52 54 53 52 51 49 49 50
39 39 38 35 33 31 30 29 29 30 30 31 31 31 31 30 29 29 29 29 30 31 32 33 34 36 37 38 39 40 41 42 43 45 47 49 51 52 53 55 55 56 57 57 57 57 56 55 53 50 48 49 49 48 46 46 45 44 43 42 43 42 42 41 40 39 38 37 37 37 38 41 44 45 46 47 48 49 50 51 52 53 53 53 52
42 42 42 40 38 35 33 32 32 32 33 34 35 35 34 33 33 32 32 32 32 33 34 35 36 37 38 39 40 41 41 42 43 44 45 46 47 48 50 52 54 55 56 57 57 57 56 54 53 51 50 50 49 49 47 47 46 45 44 43 43 43 43 42 42 41 40 39 39 38 38 39 42 45 48 48 48 48 48 48 49 50 52 55 55
46 46 44 43 42 41 37 35 34 34 36 37 39 40 39 39 38 38 37 37 37 36 36 36 37 38 39 39 40 41 42 43 44 45 46 47 47 48 48 49 50 51 51 52 51 51 50 50 49 50 50 51 50 50 49 48 48 46 45 44 44 44 44 43 42 41 42 41 41 41 40 39 40 43 47 50 50 49 49 49 49 50 51 54 55
50 51 49 46 44 44 42 38 35 36 38 41 44 45 45 44 44 43 43 42 42 41 40 39 39 39 40 41 41 42 43 44 45 45 47 48 48 49 50 50 50 50 50 49 49 49 48 48 48 48 49 50 50 50 49 49 49 48 47 47 46 46 45 44 43 42 42 43 43 43 43 42 41 41 44 48 51 52 52 51 51 52 52 53 55
54 55 55 52 48 47 46 42 39 39 42 46 49 50 50 49 47 46 45 45 45 45 44 43 42 42 42 42 43 43 44 45 46 46 47 47 49 49 50 50 50 50 50 49 49 49 50 50 50 49 49 49 49 49 49 49 50 51 50 49 49 49 48 47 46 45 43 43 43 44 44 45 44 44 43 45 49 52 55 55 55 55 54 55 55
58 58 58 56 52 50 49 48 46 46 48 52 54 55 55 52 48 46 46 46 46 46 46 46 46 45 44 44 44 44 45 46 46 47 46 47 47 48 48 48 48 49 49 49 50 51 51 51 52 52 51 51 51 51 51 51 52 53 53 53 52 51 51 50 49 49 47 46 46 45 46 46 46 46 46 46 46 49 53 56 58 59 59 58 57
63 62 59 56 54 53 53 53 53 53 55 57 57 57 56 53 50 48 48 48 47 47 48 48 48 48 47 46 45 45 46 46 47 47 47 47 48 47 47 47 47 47 47 47 48 50 51 51 52 53 53 53 54 54 54 55 55 54 54 54 53 53 54 53 52 52 52 51 50 49 49 49 48 48 49 49 49 48 50 53 57 60 63 63 62
68 66 63 59 57 56 56 56 57 58 61 61 59 56 55 53 52 52 51 50 50 50 50 51 51 50 50 49 48 47 47 47 48 48 47 48 48 47 47 48 48 48 47 47 48 50 51 51 52 53 54 54 54 54 55 56 56 55 55 55 54 55 56 56 55 55 55 55 54 54 53 53 53 52 52 52 53 52 52 52 54 57 61 64 66
71 70 69 67 65 63 62 62 63 64 63 61 58 56 54 53 53 54 54 53 53 52 52 53 53 53 52 52 51 50 50 49 49 48 48 48 48 48 48 48 49 48 47 48 50 50 51 52 52 53 53 53 53 52 53 55 55 54 55 56 56 56 57 58 58 58 58 58 58 58 57 57 57 57 56 56 57 56 56 56 56 57 59 61 64
72 72 73 73 72 71 70 69 67 65 63 61 59 57 56 55 54 54 55 55 55 54 54 54 55 55 55 54 53 52 51 51 50 50 49 49 49 49 49 48 50 50 48 48 50 50 51 52 52 53 53 53 53 52 53 54 54 54 54 55 56 57 58 59 59 59 59 60 60 61 61 60 61 62 62 62 62 62 62 61 60 60 61 61 62
76 77 78 78 77 75 72 69 67 66 64 62 59 57 57 56 56 56 56 55 54 54 54 54 55 55 54 54 54 54 53 52 52 51 51 51 50 50 50 49 49 50 49 48 47 48 49 50 50 51 52 52 52 52 53 53 54 54 54 55 55 56 57 58 59 60 60 60 61 62 63 62 62 63 64 65 65 66 66 66 65 65 65 64 65
79 80 80 78 76 74 72 71 70 68 65 61 58 58 58 57 56 55 53 52 51 51 51 51 51 52 53 55 56 56 55 54 54 52 51 51 50 50 50 49 48 48 48 47 46 46 47 48 48 49 50 51 51 51 52 52 52 53 54 55 55 56 57 59 60 60 60 60 60 61 62 62 61 61 63 63 64 65 66 66 67 68 68 68 68
78 78 77 75 74 74 74 74 72 69 64 60 58 57 56 54 53 52 51 51 51 50 49 49 50 52 55 57 57 57 56 55 54 52 50 50 51 51 49 48 46 45 46 46 46 46 46 47 49 49 50 50 50 50 50 51 50 51 53 54 55 56 56 57 58 59 58 58 58 58 60 61 60 60 61 62 63 64 65 65 66 67 69 70 70
78 78 77 76 76 75 75 74 69 63 59 56 55 55 53 51 50 49 48 48 47 47 48 49 50 52 53 54 55 55 55 55 54 52 50 49 50 50 48 45 44 44 45 45 45 45 46 47 49 50 50 51 50 50 51 50 49 48 50 52 54 55 55 55 56 57 57 55 54 56 58 60 59 59 61 63 64 64 64 65 66 67 69 70 71
76 77 77 76 75 73 72 70 64 58 55 56 57 57 55 50 46 44 43 42 43 44 46 48 49 50 51 52 53 53 53 53 53 52 50 49 48 49 48 46 47 48 48 47 47 48 50 52 53 53 53 52 50 49 49 48 46 46 48 50 52 53 54 54 55 56 58 56 54 54 57 61 61 60 62 65 66 66 66 66 67 68 69 70 72
73 74 74 73 72 70 68 66 63 60 58 58 59 57 54 48 43 41 41 41 43 44 45 47 49 50 51 51 51 51 51 50 51 51 50 50 51 51 51 51 52 52 51 51 53 54 57 59 58 55 54 51 48 47 47 47 48 49 50 53 55 55 55 55 55 56 58 58 57 56 57 60 62 63 65 67 69 69 70 70 70 70 70 72 73
72 72 71 71 69 68 67 67 66 64 61 59 57 54 51 50 49 48 50 51 51 49 46 46 46 48 49 52 53 53 53 51 51 51 51 53 56 57 56 56 57 57 57 58 60 61 63 63 60 57 55 52 49 49 51 52 54 55 55 57 59 58 58 58 57 57 59 60 60 59 59 61 63 65 67 70 72 73 73 74 74 73 74 75 76
71 72 72 71 70 69 69 69 67 66 65 63 60 58 56 56 57 58 60 60 58 54 50 48 48 47 48 51 55 56 56 56 55 54 54 56 59 61 61 61 62 64 65 65 65 65 64 63 62 60 59 57 55 56 57 58 59 61 60 58 57 57 58 60 60 61 62 63 63 62 62 63 65 67 68 71 73 75 77 78 78 77 78 78 79
71 72 72 72 71 70 70 69 68 68 68 67 67 67 67 67 66 66 67 66 65 62 60 60 60 58 58 60 63 64 63 61 60 60 60 61 63 64 65 66 67 69 70 68 66 65 64 64 64 63 62 61 62 62 63 63 64 64 62 58 55 55 56 59 61 62 64 65 65 65 63 64 66 67 69 71 74 76 78 80 81 81 82 82 82
73 73 73 73 72 72 72 72 71 71 71 71 72 73 74 74 73 73 74 74 73 72 73 72 71 70 71 72 73 72 71 69 68 68 68 69 69 69 68 68 69 71 71 71 69 67 66 66 66 66 66 66 66 67 67 68 67 65 62 60 57 55 55 57 59 61 63 65 66 66 65 65 66 67 68 70 72 75 77 80 82 84 85 86 86
74 74 75 74 74 74 74 75 75 75 74 74 75 75 76 77 77 78 78 78 76 74 74 75 74 74 75 74 73 74 76 76 75 75 74 73 72 70 70 70 71 71 72 72 72 71 70 69 68 68 68 68 69 69 69 68 67 64 61 60 58 57 57 58 59 60 63 65 66 66 65 65 66 67 68 68 70 73 76 78 80 83 85 86 87
74 74 74 74 74 75 74 75 76 75 74 74 75 75 76 77 77 78 77 75 73 72 71 72 73 75 76 75 73 74 76 76 75 75 75 74 72 71 71 72 72 73 73 73 73 73 73 73 71 70 70 71 71 70 69 68 66 64 62 61 60 59 59 59 60 61 63 65 65 64 64 63 64 66 66 66 66 69 73 75 77 79 81 82 83
Wind_Direction
279 278 276 269 261 263 271 275 280 285 292 298 302 306 303 295 299 300 298 299 294 296 306 313 315 314 313 307 298 286 283 281 271 266 272 275 274 271 266 262 261 260 261 261 261 262 262 265 267 268 267 265 262 263 266 265 259 256 259 262 260 258 259 258 257 255 253 252 253 256 259 260 261 260 253 242 236 237 240 246 251 253 255 259 259
278 277 276 271 263 264 269 274 278 280 286 294 299 303 297 288 293 294 294 295 290 290 295 300 303 302 302 302 298 290 285 286 282 276 275 273 270 266 262 260 261 260 261 262 262 263 264 265 266 267 267 266 264 263 264 263 258 255 257 260 257 254 256 255 253 251 249 249 250 253 256 259 261 263 262 253 239 234 237 241 245 249 253 257 259
273 274 274 271 266 266 268 272 275 276 280 290 297 300 292 283 286 289 290 291 287 285 288 291 292 290 290 285 279 276 276 277 279 278 276 274 270 267 266 266 265 264 264 264 263 263 263 264 265 267 269 269 267 265 264 263 259 256 255 258 255 250 251 251 249 248 247 247 249 253 256 259 261 263 264 261 248 236 234 237 238 241 246 251 255
267 266 264 264 266 267 270 271 272 275 282 290 295 296 291 282 279 281 285 287 285 283 285 287 286 287 283 272 266 267 269 269 270 269 267 269 272 271 271 271 270 270 269 267 265 264 263 263 264 268 270 270 269 267 266 264 261 258 256 257 257 252 249 249 249 250 251 252 253 256 260 261 262 262 262 261 255 243 236 236 236 235 238 244 249
262 259 256 261 269 272 276 277 278 284 289 291 291 291 288 279 272 274 279 284 285 283 284 283 282 289 282 266 260 256 257 261 261 261 265 271 276 275 273 274 274 274 275 274 272 269 265 265 267 269 269 268 268 267 266 264 261 259 257 256 257 254 251 250 251 255 257 259 261 264 265 265 264 263 261 259 256 249 242 238 236 234 235 239 245
261 256 253 260 272 278 282 285 287 290 291 289 287 285 280 271 266 267 272 280 282 283 285 280 273 277 280 267 256 249 253 262 261 260 265 268 270 271 271 274 274 277 283 280 276 275 271 269 270 268 267 267 267 266 263 262 260 258 256 255 255 255 253 254 256 260 261 262 265 267 267 266 264 261 259 256 254 252 248 244 239 236 235 237 242
261 259 257 260 269 275 280 285 289 289 287 284 281 277 270 263 260 261 266 276 282 284 282 274 267 270 278 270 260 260 263 267 263 260 261 262 266 269 269 273 276 280 285 279 273 275 274 271 271 269 268 267 265 264 262 259 257 256 256 255 256 256 257 257 259 261 263 265 266 266 265 264 263 260 255 251 250 250 250 249 245 240 237 236 239
263 265 266 268 272 274 278 283 285 284 281 279 276 270 262 256 254 255 259 271 281 279 271 264 257 258 264 264 265 269 268 261 258 259 259 259 262 265 267 272 276 277 280 278 272 269 270 271 271 270 269 266 264 263 263 260 258 257 257 257 258 259 260 261 262 263 264 266 266 265 264 263 263 260 254 249 248 248 249 251 251 247 242 239 238
270 273 276 278 279 280 282 282 282 280 276 274 268 261 256 252 252 253 251 260 271 266 265 264 249 251 258 264 267 268 266 259 257 260 261 260 259 260 264 266 266 266 269 274 273 269 269 270 270 270 269 267 266 266 267 266 264 262 260 259 260 261 263 264 265 266 266 267 267 266 266 264 263 261 257 252 251 251 251 253 254 253 249 244 240
276 279 283 286 287 288 287 284 281 278 273 267 261 255 252 251 252 254 251 252 258 257 255 250 240 247 251 257 263 262 265 265 262 263 265 265 263 263 266 266 266 265 264 265 269 273 274 269 268 270 269 266 265 264 265 266 265 265 264 263 263 263 264 265 266 266 266 267 267 267 267 266 264 262 258 254 253 253 253 254 255 255 254 250 244
282 286 291 293 294 293 291 287 282 276 269 261 254 249 247 249 251 254 252 248 250 247 239 237 238 243 248 257 261 257 260 263 263 265 267 269 269 269 269 269 269 269 266 264 266 272 272 268 267 268 267 267 266 262 261 261 262 264 265 266 265 265 265 265 266 266 266 267 268 268 268 267 265 261 258 254 253 253 254 255 256 256 255 253 248
290 294 297 297 296 295 292 288 281 273 265 254 245 243 243 246 249 251 249 246 245 239 235 238 240 242 253 260 257 253 258 263 266 266 265 266 270 272 271 268 268 269 267 265 263 263 262 262 263 264 265 268 268 265 263 262 264 265 266 267 267 267 267 267 267 268 269 269 269 268 267 265 262 258 255 253 252 253 254 256 257 257 256 253 249
296 298 298 297 295 293 290 286 279 270 260 248 238 239 241 241 242 242 242 241 241 238 239 242 241 244 254 259 256 254 259 264 266 266 266 268 271 274 274 269 267 265 261 258 256 255 257 258 259 261 263 265 267 268 267 267 268 268 267 268 269 269 269 268 267 267 267 266 265 264 261 259 257 254 253 251 251 252 254 256 256 256 255 253 250
298 298 296 294 292 291 287 283 278 267 255 243 233 235 241 239 237 236 237 240 241 242 246 249 244 242 249 257 260 259 261 262 262 264 267 269 269 270 273 272 268 263 255 251 251 253 258 259 257 257 257 259 262 264 266 268 268 268 267 267 268 269 269 267 265 264 262 261 260 259 257 256 255 253 253 252 253 254 255 256 255 255 255 252 249
296 295 293 292 289 287 283 280 276 266 254 240 231 232 238 238 236 236 237 240 243 244 250 255 251 247 248 253 258 260 263 263 262 263 264 264 264 265 269 271 270 266 258 253 252 254 256 255 253 253 253 257 260 261 264 267 266 266 268 269 269 268 268 267 264 261 259 258 258 258 257 255 255 254 255 256 257 257 257 256 254 254 254 252 250
294 293 292 290 287 283 280 276 272 265 255 243 234 232 235 237 237 236 238 241 246 250 254 257 255 251 249 249 253 259 262 262 261 261 262 264 266 267 267 268 269 267 262 257 256 256 255 252 250 250 254 261 263 260 258 256 255 256 260 265 268 268 266 264 263 261 259 258 258 259 258 257 257 257 258 259 259 259 257 255 254 253 252 251 250
292 292 291 288 285 280 276 271 265 261 256 247 239 235 236 238 237 236 238 242 248 254 256 256 253 249 247 247 252 257 259 261 263 264 264 263 263 266 269 268 265 264 262 262 259 257 256 253 252 253 258 264 265 262 258 255 253 255 258 262 264 266 267 266 265 263 261 260 260 260 260 260 260 259 259 259 259 259 257 255 254 253 251 249 248
289 288 288 285 282 277 272 267 261 256 253 249 244 238 237 239 240 239 240 242 247 251 253 253 252 250 248 249 252 255 258 262 266 267 265 260 258 264 269 267 264 262 263 265 263 261 259 258 258 261 264 267 267 267 266 263 261 259 261 263 263 263 266 268 268 267 264 262 261 261 261 261 261 261 260 259 258 257 256 255 254 253 250 248 247
284 283 283 281 277 273 269 264 258 253 250 248 246 241 238 240 242 244 244 244 247 250 252 252 253 253 251 251 254 258 261 264 266 264 262 260 258 260 264 265 264 264 264 265 265 264 264 265 266 269 270 269 271 272 272 272 270 266 264 264 263 262 263 267 269 269 268 265 262 260 260 261 262 262 262 261 259 256 255 254 253 252 250 247 245
281 280 280 278 275 270 267 263 258 252 248 246 245 243 241 241 242 244 246 247 247 250 253 253 253 256 257 257 259 262 264 265 264 262 260 260 255 252 256 259 261 263 264 266 266 266 267 269 271 274 274 274 276 277 277 277 275 272 268 265 263 261 261 263 266 268 268 267 265 262 260 260 262 263 262 260 259 256 254 252 251 248 247 247 244
278 277 277 276 274 270 266 262 259 255 250 247 244 243 242 242 243 244 246 247 248 250 253 254 254 256 259 262 265 267 268 267 266 263 261 260 255 251 253 254 255 257 261 265 267 268 269 271 272 274 276 277 278 279 279 277 275 272 270 268 266 263 261 260 262 264 265 265 265 265 263 262 261 262 260 257 254 253 252 251 250 245 242 245 245
276 275 275 274 273 271 267 263 259 256 253 250 247 245 244 244 244 244 244 246 247 248 250 253 255 257 259 262 265 267 268 268 267 265 262 259 256 256 256 254 254 255 258 260 263 266 269 271 272 275 276 276 277 277 276 274 273 273 271 270 268 266 264 262 261 262 263 263 263 263 263 263 263 262 261 256 251 250 250 248 248 244 239 240 242
275 275 275 274 272 270 268 264 260 257 255 253 251 249 247 246 246 246 246 246 247 249 250 252 255 258 260 262 264 265 264 264 264 263 261 259 257 257 258 257 257 258 259 259 259 262 264 267 271 273 275 275 275 275 274 273 273 274 273 271 269 268 266 265 263 262 261 262 262 261 261 261 262 263 263 260 253 248 247 245 245 243 241 240 240
277 276 276 274 273 271 269 267 263 260 257 256 254 252 251 250 250 250 250 250 251 252 253 254 256 259 261 263 264 263 261 260 260 259 259 259 256 255 256 257 257 258 259 259 259 261 263 267 270 272 273 274 274 274 274 275 275 275 274 272 271 269 268 267 265 263 261 260 259 259 259 259 260 261 262 262 257 250 246 244 243 243 242 243 243
280 277 276 274 273 272 270 269 266 263 261 259 258 257 255 254 254 254 254 254 255 256 256 257 258 259 260 261 262 262 260 258 256 254 256 257 256 255 255 256 255 255 256 257 259 261 265 268 270 272 274 275 276 275 274 274 274 274 272 271 271 271 271 270 269 267 263 260 258 257 256 256 257 258 260 261 259 253 248 245 245 246 245 244 244
285 282 279 276 274 272 270 268 266 263 261 261 261 261 260 259 259 259 258 259 259 259 259 260 260 260 259 260 260 260 258 255 252 251 253 256 258 258 257 256 255 254 254 256 258 261 264 268 271 273 276 278 278 277 276 276 274 272 270 270 271 272 273 274 274 273 269 264 260 256 255 255 255 255 256 257 258 255 251 247 246 249 250 247 245
287 286 283 281 278 276 273 270 267 264 261 261 261 262 264 264 263 263 263 263 263 263 264 264 265 264 262 261 260 259 258 256 254 252 252 254 257 259 258 256 254 255 255 256 257 260 263 265 269 272 275 277 278 278 278 278 276 274 272 271 272 272 272 273 274 275 274 270 264 259 257 256 256 256 254 254 255 255 254 250 247 246 249 250 248
284 284 284 285 282 279 276 274 272 268 264 263 263 264 265 267 268 267 266 265 265 266 267 267 268 268 266 264 262 261 259 258 257 256 256 256 257 258 258 257 256 256 256 257 258 261 263 265 268 270 272 273 275 275 276 277 276 275 273 272 272 272 273 273 274 275 275 274 269 264 260 257 257 257 257 256 255 256 255 253 250 247 247 247 247
281 280 281 284 284 281 278 276 275 272 269 266 267 268 268 269 270 271 271 271 270 270 270 270 269 268 267 265 265 264 262 261 260 259 259 258 258 258 258 258 258 258 259 260 261 263 266 268 270 270 269 270 271 272 273 274 275 275 274 272 271 271 271 272 273 273 274 275 273 268 263 258 255 254 257 258 258 258 257 255 253 252 250 248 247
278 277 276 278 281 282 280 279 278 276 273 271 272 273 273 272 272 273 274 274 275 275 275 275 273 271 269 267 266 265 265 264 263 261 260 260 260 259 259 260 260 260 261 262 264 266 268 269 269 268 266 267 269 270 271 271 273 274 274 273 270 269 269 269 270 270 271 272 273 272 268 262 256 252 253 256 258 259 259 257 255 253 253 251 249
274 275 272 270 272 277 280 280 280 279 277 276 277 277 276 276 276 277 276 276 276 277 278 277 277 275 274 272 271 269 268 267 266 265 264 263 262 261 261 261 261 262 263 263 265 266 267 267 266 265 264 265 266 267 268 269 269 270 271 271 271 269 269 269 268 268 268 268 269 270 269 266 260 254 251 252 254 256 257 257 256 253 251 250 249
269 272 270 266 266 270 276 280 282 283 283 281 280 278 276 276 277 278 279 278 277 276 277 277 277 277 276 275 274 273 272 271 270 269 268 267 265 264 263 262 262 262 262 263 263 264 265 265 265 264 263 264 264 265 265 266 267 268 268 268 269 269 268 268 268 268 268 267 266 267 267 266 263 258 254 252 252 253 253 254 254 253 250 248 248
267 270 271 269 267 266 270 277 281 285 288 288 286 283 278 276 276 276 277 278 278 277 277 277 278 278 277 276 275 274 273 272 271 270 269 268 267 266 265 264 264 263 263 264 264 264 264 264 264 264 263 263 264 264 265 266 267 267 267 267 267 267 266 266 267 268 269 269 267 265 264 263 263 261 258 254 252 251 251 251 251 251 251 249 249
266 269 270 272 272 268 268 271 276 282 289 290 288 285 282 278 277 276 275 276 277 277 277 278 279 279 278 277 275 275 274 274 273 272 270 269 268 266 266 266 265 265 264 265 265 264 264 265 264 263 263 264 264 264 265 267 268 268 268 267 267 266 266 266 266 266 267 268 268 266 264 263 262 261 260 258 255 253 251 251 250 249 249 249 249
265 267 269 270 272 270 267 267 271 279 287 289 287 285 282 279 275 274 275 276 276 276 276 277 278 279 278 277 275 275 274 274 273 273 272 270 269 267 267 266 266 265 264 265 265 265 265 266 266 265 265 265 265 266 266 266 267 268 269 269 268 268 267 267 267 267 266 266 267 267 266 264 263 262 261 259 258 256 254 252 251 250 249 248 248
263 265 266 268 270 270 268 267 268 275 283 286 286 284 282 278 273 272 275 277 278 278 278 278 279 279 278 277 276 276 275 274 274 273 272 271 269 268 267 267 267 266 266 265 266 266 266 266 266 266 266 266 266 267 266 266 265 266 267 268 269 268 267 267 267 267 267 266 266 266 266 266 264 263 261 260 258 258 257 255 253 251 250 249 248
262 262 262 265 268 268 268 268 269 276 282 284 284 283 281 277 273 272 276 279 280 281 280 280 281 280 280 280 279 279 278 277 276 275 273 272 271 270 269 269 268 266 266 266 266 266 267 266 266 266 266 267 267 266 266 265 265 265 266 266 266 266 267 266 265 265 266 266 266 265 265 266 266 264 262 260 258 257 257 257 256 255 253 251 250
261 261 262 265 268 269 270 272 274 278 281 281 282 281 279 276 274 275 278 281 282 282 282 282 282 282 282 283 283 283 282 281 279 277 275 274 273 273 271 271 270 268 266 266 266 266 266 266 266 266 266 266 265 265 265 265 264 265 265 265 265 265 265 265 264 263 263 264 264 264 264 264 265 264 263 261 259 258 258 258 258 258 256 255 253
260 261 264 267 270 272 274 275 276 278 278 280 281 280 278 277 276 278 280 282 282 282 282 282 282 282 283 284 284 284 283 281 279 277 276 276 275 274 273 272 272 271 269 267 267 266 265 265 265 266 266 265 264 264 264 264 264 264 265 265 265 265 265 264 264 264 263 263 264 264 263 263 264 264 264 263 261 260 260 260 259 259 258 257 256
262 264 266 268 271 273 274 275 276 277 279 280 280 278 278 278 278 279 280 280 280 280 280 280 281 282 283 284 285 284 282 281 279 278 278 278 277 276 274 273 272 271 269 268 267 267 266 265 264 264 265 265 265 264 264 264 265 265 265 265 265 265 265 265 264 264 264 264 264 264 264 263 263 264 264 265 265 264 263 263 262 261 260 259 258
264 265 267 269 270 272 274 275 277 279 280 280 278 278 278 279 279 279 278 278 279 279 279 279 280 282 284 285 285 284 283 281 280 279 279 278 277 274 272 270 269 268 268 268 267 267 267 267 265 264 264 265 265 266 265 265 265 265 265 265 265 265 265 266 265 264 264 264 264 265 264 264 263 263 263 264 264 265 265 264 264 263 262 260 259
265 266 268 270 271 273 275 276 278 279 279 278 278 279 278 278 278 276 276 277 278 279 279 279 281 284 287 287 286 284 283 281 279 279 278 276 274 272 270 269 268 267 267 267 267 267 267 267 266 266 265 266 266 266 266 267 267 267 268 267 267 267 266 266 267 266 265 264 264 264 265 264 263 262 262 262 262 262 263 264 264 264 263 262 261
265 267 268 269 271 273 274 275 276 276 277 278 279 278 276 275 273 273 275 277 277 277 278 281 284 286 286 284 283 283 282 280 280 279 277 275 274 271 269 268 268 270 269 268 267 268 268 268 269 269 268 268 268 267 266 266 268 269 270 271 270 269 268 267 267 266 265 263 262 263 263 264 263 261 261 261 261 261 261 262 263 263 264 263 262
264 265 266 267 269 270 271 272 272 272 275 278 279 278 276 275 273 271 273 275 276 278 279 283 286 286 283 281 279 278 278 277 278 278 278 276 273 270 269 267 268 270 270 268 268 269 270 272 273 274 272 269 267 266 265 265 268 271 274 275 273 270 269 269 268 267 266 264 263 262 262 263 263 262 260 260 260 260 260 260 260 262 263 264 264
264 264 265 266 267 268 269 269 269 270 272 275 277 277 275 274 272 269 268 272 276 277 281 287 289 287 283 281 278 276 275 274 274 274 275 274 273 272 271 269 267 267 267 266 268 270 272 275 276 277 275 269 264 263 264 265 270 275 278 280 277 272 269 269 268 267 267 267 266 264 264 264 264 263 262 261 261 260 260 259 259 260 261 262 263
266 267 267 267 268 268 268 268 269 269 269 269 270 270 269 268 267 265 267 271 273 274 279 285 286 284 282 281 280 278 275 273 271 271 271 272 273 274 274 272 269 268 268 268 269 270 273 275 276 277 276 270 263 263 266 268 272 276 279 280 278 274 270 268 267 266 266 266 266 266 266 266 266 266 265 264 263 262 261 260 260 260 260 260 261
267 268 268 269 269 269 269 269 270 270 269 268 266 264 264 264 263 262 265 268 269 270 273 274 272 272 275 278 279 277 274 271 271 270 269 270 272 273 273 272 271 271 271 271 271 273 274 275 276 276 276 273 267 266 268 271 274 278 279 278 276 272 270 269 268 267 267 267 267 266 266 266 267 267 267 267 266 265 264 263 262 262 261 261 261
265 266 267 267 268 268 268 269 269 270 270 269 268 266 265 265 264 263 263 265 267 267 268 268 267 268 270 273 274 273 271 271 272 272 271 271 272 272 272 272 272 273 274 275 276 276 277 277 277 276 276 274 271 270 271 273 277 280 280 277 273 270 267 266 266 266 266 267 267 266 265 265 266 266 267 267 268 267 267 267 266 265 264 262 262
264 264 264 265 266 267 267 268 268 269 269 269 270 269 269 269 268 266 266 267 268 269 270 270 270 270 271 272 271 269 268 269 271 272 272 273 274 274 273 272 272 273 276 278 279 279 279 278 277 277 277 276 274 273 274 276 279 280 280 278 275 272 269 267 266 265 266 266 266 265 265 264 264 264 264 265 266 266 266 267 267 267 266 265 265
263 263 264 264 265 266 266 267 268 268 268 268 268 269 269 270 269 269 269 269 270 270 270 270 270 270 271 271 269 266 265 266 268 270 271 272 274 274 273 273 273 274 275 277 279 280 280 279 279 278 278 278 277 277 277 278 279 279 279 279 278 276 274 272 270 269 269 269 268 267 267 266 265 264 264 264 264 265 264 265 265 266 266 266 266
264 264 264 265 265 265 266 267 268 268 268 268 268 267 267 267 268 268 268 269 269 268 268 267 267 267 267 266 265 264 264 265 267 268 268 270 270 271 271 272 273 274 275 276 277 278 279 280 281 280 280 280 280 280 281 281 282 282 282 282 281 279 278 277 275 274 274 273 272 271 271 271 270 269 267 266 266 267 267 266 265 264 265 266 266
Height
10729 10729 10728 10727 10727 10726 10727 10727 10726 10723 10719 10717 10718 10720 10721 10722 10722 10720 10719 10719 10720 10720 10719 10718 10717 10716 10716 10716 10716 10716 10715 10713 10713 10714 10713 10714 10715 10716 10717 10718 10718 10719 10719 10719 10720 10721 10721 10722 10722 10722 10723 10724 10724 10724 10725 10726 10726 10727 10728 10729 10730 10730 10731 10731 10731 10732 10733 10733 10734 10735 10736 10737 10738 10739 10739 10740 10741 10743 10744 10745 10746 10746 10747 10748 10749
10724 10724 10724 10724 10724 10723 10723 10723 10723 10720 10717 10715 10715 10717 10719 10719 10719 10718 10717 10717 10718 10719 10718 10717 10716 10715 10715 10714 10714 10715 10714 10711 10710 10710 10710 10710 10711 10712 10713 10714 10714 10715 10715 10716 10716 10717 10717 10718 10718 10718 10719 10720 10720 10720 10721 10722 10722 10723 10724 10725 10726 10727 10727 10727 10728 10728 10729 10730 10731 10732 10733 10734 10735 10736 10736 10737 10738 10739 10740 10741 10742 10743 10744 10745 10746
10719 10719 10720 10721 10720 10720 10718 10718 10718 10716 10714 10713 10713 10714 10716 10717 10717 10716 10716 10715 10714 10715 10716 10715 10714 10714 10714 10713 10713 10714 10713 10710 10707 10706 10705 10705 10707 10708 10710 10710 10711 10711 10712 10713 10713 10713 10713 10714 10714 10714 10715 10716 10717 10717 10717 10718 10719 10719 10720 10721 10722 10723 10723 10724 10724 10725 10726 10727 10728 10729 10730 10731 10732 10733 10733 10734 10734 10735 10736 10737 10738 10740 10741 10742 10743
10716 10715 10715 10716 10715 10714 10712 10712 10712 10712 10711 10710 10710 10710 10713 10715 10715 10714 10713 10713 10712 10711 10713 10712 10711 10711 10711 10711 10711 10712 10711 10708 10704 10701 10701 10702 10705 10707 10707 10707 10708 10708 10709 10710 10710 10710 10710 10710 10711 10711 10712 10712 10713 10713 10713 10714 10715 10716 10716 10718 10719 10719 10720 10720 10721 10721 10722 10723 10724 10725 10726 10727 10728 10729 10730 10730 10730 10731 10732 10733 10734 10736 10737 10738 10739
10713 10712 10712 10711 10709 10709 10708 10707 10708 10709 10708 10707 10707 10708 10710 10712 10712 10711 10710 10710 10709 10708 10709 10709 10708 10708 10709 10709 10709 10708 10707 10704 10700 10697 10698 10701 10703 10704 10704 10704 10705 10706 10706 10706 10707 10707 10707 10707 10708 10708 10709 10709 10709 10710 10710 10711 10711 10712 10713 10714 10715 10716 10716 10717 10717 10718 10719 10720 10721 10722 10722 10723 10724 10725 10725 10726 10727 10727 10728 10729 10730 10732 10733 10735 10736
10710 10710 10710 10707 10704 10705 10705 10703 10703 10704 10703 10704 10704 10705 10707 10708 10708 10708 10707 10707 10706 10705 10705 10705 10705 10706 10706 10706 10705 10704 10704 10702 10698 10696 10697 10699 10699 10699 10700 10702 10702 10703 10703 10703 10703 10703 10703 10704 10704 10704 10705 10705 10706 10706 10706 10707 10707 10708 10709 10710 10710 10711 10712 10713 10714 10715 10716 10716 10717 10718 10718 10719 10719 10720 10721 10722 10723 10724 10724 10725 10727 10728 10729 10731 10732
10707 10707 10707 10705 10703 10704 10702 10699 10698 10698 10699 10699 10700 10702 10704 10704 10705 10704 10704 10704 10704 10702 10701 10702 10701 10701 10702 10702 10701 10701 10703 10702 10696 10694 10695 10696 10697 10697 10697 10699 10700 10699 10699 10698 10698 10699 10699 10699 10700 10700 10700 10701 10701 10702 10702 10703 10703 10704 10705 10705 10706 10707 10708 10709 10710 10711 10711 10712 10713 10713 10714 10715 10715 10716 10716 10718 10719 10720 10721 10722 10723 10724 10726 10727 10728
10701 10702 10703 10702 10701 10701 10700 10697 10696 10694 10693 10694 10695 10697 10699 10700 10700 10700 10701 10702 10702 10700 10699 10699 10697 10696 10696 10695 10695 10697 10700 10699 10694 10692 10693 10694 10695 10695 10695 10698 10698 10695 10693 10694 10694 10695 10695 10695 10696 10696 10696 10696 10697 10697 10698 10698 10699 10699 10700 10701 10701 10702 10703 10704 10705 10706 10707 10708 10709 10709 10710 10711 10712 10712 10713 10714 10715 10716 10717 10719 10720 10721 10722 10723 10725
10696 10697 10698 10697 10696 10697 10696 10694 10692 10689 10688 10689 10690 10692 10694 10695 10696 10696 10698 10699 10699 10698 10697 10696 10694 10692 10691 10689 10690 10693 10696 10696 10694 10691 10691 10691 10693 10692 10693 10695 10694 10690 10689 10690 10691 10692 10692 10692 10692 10692 10692 10692 10692 10693 10693 10694 10694 10695 10695 10696 10697 10698 10699 10699 10700 10701 10703 10704 10705 10706 10706 10707 10708 10708 10709 10710 10711 10713 10714 10715 10716 10718 10719 10720 10721
10691 10692 10693 10692 10691 10691 10689 10687 10685 10684 10684 10685 10687 10688 10690 10691 10691 10692 10694 10696 10696 10696 10695 10693 10690 10689 10687 10686 10688 10690 10692 10693 10692 10690 10689 10689 10689 10689 10689 10689 10688 10687 10686 10687 10688 10689 10689 10689 10689 10689 10689 10688 10689 10689 10689 10689 10690 10690 10691 10692 10693 10693 10694 10695 10696 10697 10698 10699 10700 10701 10702 10703 10703 10704 10705 10706 10707 10708 10710 10711 10712 10713 10715 10716 10717
10686 10687 10687 10685 10684 10683 10682 10680 10679 10678 10679 10680 10683 10685 10686 10686 10687 10688 10689 10691 10693 10693 10692 10690 10688 10686 10683 10683 10685 10687 10688 10688 10688 10689 10688 10687 10686 10686 10686 10684 10683 10683 10684 10684 10685 10686 10686 10686 10686 10686 10685 10685 10685 10685 10685 10686 10686 10686 10687 10688 10689 10689 10690 10691 10693 10693 10694 10695 10696 10697 10697 10698 10698 10699 10701 10701 10703 10704 10705 10707 10708 10709 10710 10710 10711
10680 10681 10680 10678 10678 10677 10676 10675 10674 10673 10674 10676 10679 10681 10682 10682 10683 10684 10685 10687 10688 10689 10688 10687 10685 10683 10680 10679 10681 10683 10683 10684 10684 10685 10686 10685 10684 10683 10681 10680 10679 10679 10680 10681 10682 10683 10684 10683 10683 10682 10683 10682 10682 10682 10682 10682 10683 10683 10683 10684 10685 10686 10687 10688 10689 10689 10690 10690 10691 10692 10692 10693 10693 10694 10696 10697 10699 10700 10701 10702 10703 10704 10704 10704 10705
10674 10674 10674 10673 10672 10671 10670 10669 10669 10669 10670 10672 10675 10677 10678 10678 10679 10680 10681 10682 10684 10685 10685 10683 10682 10680 10677 10676 10677 10680 10680 10680 10681 10682 10682 10682 10681 10679 10675 10674 10675 10676 10676 10677 10678 10680 10680 10680 10679 10679 10680 10679 10679 10679 10679 10680 10680 10680 10680 10680 10681 10682 10683 10683 10684 10685 10685 10685 10686 10688 10688 10688 10689 10689 10691 10693 10694 10696 10697 10697 10698 10698 10698 10699 10699
10668 10669 10669 10669 10668 10667 10666 10664 10664 10665 10666 10669 10671 10673 10674 10674 10675 10677 10677 10678 10679 10680 10681 10680 10679 10677 10675 10673 10673 10676 10677 10676 10676 10678 10679 10680 10678 10675 10671 10669 10670 10672 10673 10674 10674 10676 10676 10676 10676 10676 10676 10676 10676 10676 10677 10677 10677 10676 10676 10677 10677 10678 10678 10679 10680 10680 10681 10681 10682 10683 10683 10684 10684 10685 10687 10688 10690 10691 10691 10692 10692 10692 10693 10693 10694
10663 10664 10664 10665 10665 10663 10663 10661 10660 10660 10662 10664 10667 10669 10670 10670 10671 10673 10674 10674 10674 10676 10676 10675 10675 10674 10673 10671 10670 10672 10674 10672 10672 10673 10675 10675 10674 10673 10669 10666 10666 10667 10669 10670 10671 10672 10672 10672 10673 10673 10673 10673 10673 10673 10674 10674 10674 10673 10673 10673 10674 10674 10675 10675 10675 10676 10677 10678 10679 10679 10679 10680 10680 10681 10683 10684 10685 10685 10686 10687 10687 10687 10688 10689 10690
10658 10658 10659 10660 10661 10661 10660 10659 10658 10656 10656 10659 10662 10664 10666 10666 10667 10668 10669 10669 10670 10671 10671 10670 10670 10670 10670 10669 10667 10668 10669 10669 10668 10668 10670 10670 10670 10669 10667 10664 10663 10663 10665 10666 10667 10668 10669 10670 10670 10670 10670 10669 10669 10669 10670 10671 10670 10670 10671 10671 10671 10671 10671 10671 10672 10672 10673 10674 10675 10675 10676 10676 10676 10678 10679 10679 10679 10680 10681 10682 10682 10682 10684 10685 10686
10652 10653 10654 10655 10656 10658 10658 10657 10656 10654 10653 10654 10656 10659 10661 10662 10663 10663 10664 10665 10665 10667 10667 10666 10666 10665 10666 10665 10664 10664 10664 10664 10664 10664 10665 10666 10666 10665 10662 10661 10660 10660 10661 10662 10663 10665 10666 10666 10666 10666 10666 10666 10665 10665 10666 10666 10667 10666 10666 10667 10667 10667 10667 10667 10668 10668 10669 10670 10671 10671 10672 10672 10672 10673 10674 10674 10674 10675 10676 10676 10677 10678 10679 10680 10681
10646 10647 10649 10650 10651 10653 10654 10655 10654 10652 10651 10651 10652 10654 10656 10657 10657 10658 10658 10659 10661 10662 10663 10663 10662 10661 10661 10661 10661 10660 10660 10660 10660 10661 10661 10661 10662 10661 10659 10657 10656 10656 10658 10659 10659 10660 10661 10661 10662 10662 10662 10661 10661 10661 10661 10661 10662 10662 10662 10662 10663 10663 10663 10663 10663 10664 10665 10666 10667 10668 10667 10668 10668 10669 10670 10670 10670 10671 10671 10672 10673 10674 10675 10675 10675
10641 10642 10644 10645 10647 10648 10649 10651 10651 10650 10649 10648 10649 10650 10651 10652 10652 10652 10653 10654 10656 10657 10658 10659 10658 10657 10656 10656 10656 10656 10657 10657 10657 10657 10657 10657 10658 10657 10655 10654 10653 10653 10654 10655 10656 10656 10657 10657 10657 10657 10657 10657 10656 10656 10655 10656 10656 10657 10657 10657 10657 10658 10658 10658 10658 10659 10660 10661 10662 10663 10663 10664 10664 10665 10665 10666 10666 10666 10667 10668 10669 10670 10669 10669 10670
10638 10639 10640 10641 10643 10644 10645 10646 10647 10647 10646 10646 10646 10646 10647 10647 10648 10648 10648 10649 10651 10652 10653 10654 10653 10652 10652 10652 10652 10652 10653 10653 10654 10654 10653 10653 10653 10652 10652 10651 10651 10650 10650 10651 10653 10653 10653 10653 10654 10654 10653 10653 10652 10652 10651 10651 10650 10651 10651 10651 10652 10652 10653 10653 10654 10654 10654 10655 10657 10658 10658 10659 10660 10661 10662 10662 10662 10662 10663 10665 10665 10665 10665 10663 10665
10636 10636 10637 10638 10640 10641 10642 10642 10643 10643 10643 10643 10643 10643 10643 10643 10644 10644 10644 10645 10647 10648 10649 10649 10648 10647 10647 10648 10647 10647 10648 10649 10649 10649 10649 10649 10649 10648 10648 10647 10647 10647 10647 10648 10649 10649 10650 10649 10650 10650 10650 10649 10649 10648 10647 10646 10645 10645 10645 10646 10646 10646 10647 10647 10648 10649 10649 10650 10651 10652 10653 10654 10655 10657 10658 10658 10658 10658 10659 10660 10661 10662 10661 10660 10661
10633 10633 10634 10635 10636 10637 10639 10639 10640 10640 10640 10639 10639 10639 10640 10640 10640 10640 10641 10641 10642 10644 10645 10644 10644 10643 10643 10645 10644 10643 10644 10645 10644 10644 10645 10646 10646 10645 10643 10643 10643 10643 10644 10644 10645 10646 10645 10645 10645 10645 10646 10645 10644 10643 10643 10642 10641 10640 10640 10640 10640 10640 10640 10641 10642 10643 10644 10644 10645 10646 10647 10648 10649 10652 10653 10654 10654 10654 10655 10656 10657 10658 10657 10656 10657
10630 10631 10631 10632 10633 10634 10635 10636 10637 10638 10637 10636 10636 10636 10636 10637 10637 10637 10637 10638 10638 10639 10640 10640 10640 10639 10639 10640 10639 10639 10640 10641 10640 10640 10641 10641 10641 10641 10639 10639 10640 10640 10640 10641 10641 10642 10641 10641 10640 10640 10640 10640 10639 10639 10638 10637 10637 10636 10635 10635 10635 10635 10635 10635 10635 10636 10638 10638 10639 10640 10640 10641 10643 10645 10647 10649 10649 10650 10651 10651 10652 10653 10652 10651 10652
10629 10628 10629 10629 10631 10631 10632 10633 10634 10635 10634 10634 10633 10633 10634 10634 10634 10634 10635 10635 10635 10635 10636 10636 10636 10635 10635 10635 10635 10635 10636 10636 10636 10637 10638 10638 10638 10637 10635 10636 10637 10637 10637 10637 10637 10637 10637 10637 10636 10635 10635 10635 10634 10634 10633 10633 10632 10631 10631 10630 10630 10629 10629 10629 10630 10630 10631 10632 10633 10634 10634 10635 10637 10639 10641 10643 10645 10645 10646 10647 10647 10647 10647 10647 10648
10627 10627 10627 10628 10628 10629 10630 10631 10631 10632 10631 10631 10631 10630 10631 10631 10631 10632 10632 10632 10632 10632 10632 10632 10632 10632 10632 10631 10630 10630 10630 10631 10632 10634 10635 10635 10634 10633 10632 10633 10634 10633 10634 10634 10634 10633 10633 10633 10632 10632 10631 10631 10630 10630 10629 10628 10628 10627 10626 10626 10625 10625 10625 10625 10625 10625 10625 10626 10627 10628 10629 10629 10630 10632 10634 10637 10639 10640 10641 10642 10642 10642 10643 10643 10643
10625 10625 10625 10626 10627 10628 10628 10629 10629 10629 10629 10628 10628 10628 10628 10628 10629 10629 10629 10629 10629 10628 10628 10628 10628 10628 10627 10626 10626 10625 10625 10626 10627 10629 10630 10631 10630 10629 10628 10629 10630 10629 10629 10630 10629 10629 10629 10629 10628 10628 10627 10627 10627 10626 10625 10625 10624 10624 10623 10622 10622 10622 10621 10621 10621 10621 10621 10621 10621 10622 10624 10624 10624 10626 10627 10629 10632 10634 10635 10636 10637 10638 10638 10638 10638
10623 10623 10624 10624 10625 10626 10626 10627 10627 10627 10627 10626 10626 10626 10625 10625 10626 10626 10626 10626 10625 10625 10624 10624 10624 10623 10622 10621 10621 10621 10621 10621 10623 10623 10624 10625 10625 10624 10624 10625 10625 10624 10624 10624 10624 10624 10624 10624 10623 10623 10623 10623 10623 10622 10622 10621 10621 10620 10620 10619 10619 10618 10618 10617 10617 10617 10617 10616 10616 10617 10618 10618 10619 10620 10621 10623 10625 10627 10629 10630 10631 10632 10633 10633 10633
10621 10621 10622 10623 10623 10624 10624 10625 10625 10625 10625 10624 10624 10623 10623 10623 10623 10623 10623 10622 10622 10621 10620 10620 10619 10618 10618 10617 10617 10616 10616 10617 10617 10618 10618 10619 10619 10619 10619 10619 10619 10619 10619 10619 10619 10619 10619 10619 10618 10618 10618 10618 10618 10617 10617 10617 10617 10616 10616 10615 10615 10614 10614 10613 10613 10613 10613 10613 10612 10612 10613 10613 10614 10615 10615 10617 10618 10620 10622 10624 10625 10626 10627 10628 10628
10617 10618 10619 10620 10620 10621 10622 10622 10622 10622 10622 10622 10621 10621 10620 10619 10619 10619 10619 10619 10618 10617 10616 10616 10615 10614 10614 10613 10612 10612 10612 10612 10612 10612 10612 10612 10613 10613 10614 10614 10614 10614 10614 10614 10614 10613 10613 10613 10613 10613 10613 10613 10613 10612 10612 10612 10612 10612 10611 10611 10610 10610 10609 10609 10609 10609 10609 10609 10608 10608 10608 10609 10609 10610 10611 10611 10612 10614 10616 10617 10619 10620 10621 10622 10623
10613 10614 10616 10616 10617 10618 10618 10619 10619 10619 10619 10619 10618 10618 10617 10616 10616 10615 10615 10614 10614 10613 10613 10612 10611 10610 10609 10609 10608 10608 10607 10607 10607 10606 10606 10606 10607 10607 10607 10608 10608 10608 10608 10608 10608 10607 10607 10607 10607 10607 10607 10607 10607 10607 10607 10607 10606 10606 10606 10606 10605 10605 10604 10604 10604 10604 10604 10604 10604 10604 10604 10604 10605 10605 10606 10607 10607 10608 10609 10611 10612 10613 10615 10616 10617
10608 10610 10611 10612 10613 10614 10615 10615 10615 10616 10616 10616 10615 10615 10614 10613 10612 10612 10611 10610 10610 10609 10609 10608 10607 10606 10605 10605 10604 10603 10602 10602 10601 10601 10601 10601 10601 10601 10601 10601 10602 10602 10601 10602 10602 10601 10602 10602 10602 10602 10601 10601 10601 10601 10601 10601 10601 10601 10600 10600 10600 10600 10599 10599 10599 10599 10599 10599 10599 10599 10599 10599 10599 10600 10601 10601 10602 10603 10604 10605 10606 10607 10608 10609 10610
10603 10605 10606 10607 10608 10609 10610 10610 10610 10611 10611 10611 10611 10611 10610 10610 10609 10608 10607 10606 10606 10605 10604 10603 10602 10602 10601 10600 10599 10598 10597 10597 10596 10596 10595 10595 10595 10595 10595 10595 10595 10595 10594 10595 10595 10595 10595 10595 10595 10595 10596 10596 10596 10596 10596 10596 10595 10595 10595 10594 10594 10594 10594 10594 10594 10594 10594 10594 10594 10594 10594 10594 10594 10594 10595 10595 10596 10597 10598 10599 10600 10601 10601 10602 10603
10597 10599 10601 10602 10603 10604 10604 10605 10605 10605 10605 10606 10606 10606 10606 10605 10605 10604 10603 10602 10601 10600 10599 10598 10598 10597 10596 10595 10594 10593 10592 10591 10591 10590 10590 10589 10589 10589 10589 10588 10588 10588 10588 10589 10589 10589 10589 10589 10589 10589 10589 10590 10590 10590 10590 10590 10590 10589 10589 10589 10588 10588 10588 10588 10588 10589 10589 10588 10588 10588 10588 10588 10588 10588 10588 10589 10590 10590 10591 10592 10593 10594 10595 10595 10596
10591 10593 10595 10596 10597 10598 10598 10599 10599 10599 10599 10600 10600 10600 10600 10599 10599 10598 10598 10597 10596 10595 10594 10593 10592 10592 10591 10590 10589 10588 10587 10586 10585 10584 10584 10584 10583 10582 10582 10582 10582 10582 10582 10583 10582 10582 10582 10582 10582 10583 10583 10583 10584 10584 10584 10584 10583 10582 10582 10582 10582 10582 10582 10582 10582 10583 10583 10582 10582 10582 10583 10583 10583 10583 10583 10583 10583 10583 10584 10585 10585 10586 10587 10587 10589
10585 10587 10589 10590 10591 10592 10593 10593 10593 10592 10593 10593 10593 10593 10592 10592 10592 10592 10591 10591 10590 10589 10588 10587 10586 10585 10585 10584 10583 10582 10581 10580 10579 10578 10578 10577 10576 10576 10576 10576 10576 10576 10576 10577 10576 10575 10576 10576 10575 10576 10577 10577 10577 10576 10577 10576 10575 10575 10575 10575 10576 10576 10576 10576 10576 10575 10576 10577 10576 10576 10577 10577 10577 10578 10578 10577 10577 10577 10577 10577 10578 10578 10578 10579 10580
10581 10582 10583 10584 10585 10586 10587 10587 10587 10587 10587 10586 10586 10585 10584 10584 10584 10584 10584 10583 10583 10582 10581 10580 10579 10578 10578 10577 10577 10576 10575 10574 10573 10572 10572 10571 10570 10570 10571 10570 10570 10569 10570 10571 10570 10568 10568 10569 10569 10568 10569 10570 10570 10569 10569 10568 10567 10568 10568 10569 10570 10570 10569 10570 10570 10569 10568 10569 10570 10570 10570 10570 10571 10571 10571 10571 10571 10570 10570 10570 10570 10570 10570 10571 10572
10574 10576 10577 10578 10579 10580 10580 10580 10581 10580 10580 10579 10578 10577 10576 10576 10575 10576 10576 10575 10574 10573 10572 10572 10571 10570 10570 10570 10569 10569 10568 10567 10566 10565 10565 10564 10563 10564 10564 10563 10563 10563 10563 10564 10563 10561 10561 10561 10561 10561 10561 10561 10562 10562 10561 10559 10560 10561 10561 10562 10563 10562 10562 10562 10563 10562 10561 10561 10562 10563 10563 10563 10563 10563 10564 10564 10563 10563 10563 10563 10562 10562 10562 10563 10564
10567 10569 10570 10571 10572 10572 10573 10573 10573 10573 10572 10571 10570 10569 10568 10567 10567 10566 10566 10565 10565 10564 10563 10563 10562 10562 10562 10561 10561 10561 10560 10559 10558 10557 10557 10557 10556 10556 10557 10556 10554 10555 10556 10556 10555 10555 10555 10554 10553 10553 10553 10554 10554 10554 10553 10552 10553 10554 10554 10553 10554 10555 10554 10554 10554 10555 10554 10554 10553 10554 10555 10555 10555 10555 10555 10555 10555 10555 10555 10555 10555 10554 10554 10555 10556
10560 10561 10562 10563 10564 10564 10565 10565 10565 10565 10564 10563 10562 10561 10560 10559 10558 10558 10557 10556 10555 10554 10555 10554 10554 10554 10554 10553 10553 10553 10552 10551 10549 10549 10549 10549 10549 10548 10549 10549 10547 10546 10548 10548 10547 10547 10547 10547 10546 10546 10545 10545 10546 10547 10546 10544 10545 10547 10547 10546 10546 10547 10546 10546 10546 10546 10546 10546 10545 10545 10545 10547 10547 10546 10546 10546 10546 10546 10546 10547 10547 10546 10546 10547 10548
10554 10554 10555 10555 10556 10556 10556 10557 10557 10557 10556 10555 10553 10552 10551 10550 10549 10549 10548 10547 10546 10546 10546 10546 10546 10546 10546 10546 10545 10544 10543 10542 10541 10541 10541 10541 10542 10540 10540 10541 10540 10538 10538 10539 10540 10539 10539 10539 10539 10538 10537 10537 10538 10539 10538 10538 10538 10538 10539 10539 10539 10538 10538 10538 10538 10538 10538 10538 10538 10536 10536 10538 10538 10538 10537 10537 10537 10537 10537 10537 10537 10536 10537 10538 10538
10547 10548 10548 10548 10548 10548 10548 10549 10549 10548 10547 10547 10545 10543 10542 10541 10540 10539 10539 10538 10538 10538 10539 10539 10539 10539 10539 10539 10536 10535 10535 10534 10534 10534 10534 10534 10533 10532 10531 10532 10532 10531 10530 10530 10532 10532 10531 10530 10530 10531 10530 10530 10530 10530 10530 10530 10530 10531 10531 10531 10531 10531 10530 10529 10529 10530 10531 10530 10530 10529 10527 10528 10530 10529 10527 10528 10527 10527 10527 10527 10527 10526 10526 10527 10528
10539 10540 10540 10540 10540 10540 10540 10540 10540 10540 10539 10538 10536 10533 10532 10532 10530 10530 10530 10530 10531 10531 10532 10532 10533 10533 10532 10530 10527 10527 10527 10526 10526 10527 10527 10526 10525 10524 10523 10523 10524 10524 10523 10523 10524 10524 10524 10523 10522 10522 10523 10522 10523 10523 10522 10522 10523 10523 10523 10522 10523 10523 10523 10522 10520 10520 10522 10524 10523 10521 10518 10519 10522 10522 10519 10518 10518 10518 10518 10517 10516 10516 10515 10516 10517
10531 10532 10533 10533 10532 10532 10532 10532 10532 10532 10531 10530 10527 10524 10523 10523 10522 10522 10523 10523 10524 10525 10524 10525 10526 10527 10525 10521 10519 10519 10518 10517 10517 10518 10519 10518 10517 10517 10517 10517 10517 10517 10516 10516 10516 10516 10516 10516 10516 10516 10516 10516 10516 10516 10515 10515 10516 10516 10516 10515 10515 10515 10515 10515 10513 10511 10512 10515 10517 10515 10511 10509 10513 10514 10511 10508 10508 10509 10509 10508 10507 10506 10505 10505 10505
10523 10523 10524 10524 10524 10525 10524 10523 10524 10525 10523 10520 10517 10515 10515 10516 10516 10517 10517 10517 10518 10518 10517 10518 10519 10518 10515 10513 10512 10511 10511 10510 10509 10509 10510 10510 10509 10509 10510 10510 10511 10510 10510 10509 10509 10508 10508 10509 10509 10509 10508 10509 10510 10509 10507 10508 10509 10510 10509 10509 10509 10509 10508 10507 10507 10504 10503 10506 10509 10509 10505 10501 10502 10505 10503 10500 10499 10500 10499 10499 10498 10498 10497 10495 10494
10514 10514 10515 10515 10516 10518 10516 10514 10515 10517 10516 10513 10509 10507 10508 10509 10510 10510 10510 10511 10512 10512 10511 10512 10511 10508 10505 10503 10503 10503 10503 10503 10503 10502 10502 10502 10502 10502 10503 10503 10503 10503 10503 10502 10501 10501 10501 10500 10501 10501 10500 10501 10503 10502 10500 10501 10502 10502 10502 10502 10502 10502 10502 10501 10500 10498 10496 10497 10499 10501 10500 10495 10494 10495 10494 10491 10490 10490 10490 10489 10488 10489 10488 10487 10485
10504 10504 10506 10506 10507 10508 10507 10506 10508 10509 10509 10506 10502 10500 10501 10502 10504 10504 10503 10505 10506 10507 10509 10510 10507 10502 10496 10493 10494 10496 10495 10495 10496 10496 10496 10495 10494 10495 10496 10496 10495 10495 10495 10494 10493 10493 10493 10492 10493 10493 10492 10493 10495 10495 10494 10494 10494 10494 10494 10494 10493 10494 10495 10494 10492 10491 10489 10488 10489 10492 10493 10489 10486 10486 10485 10482 10481 10480 10479 10478 10478 10478 10478 10477 10475
10497 10496 10496 10496 10498 10499 10497 10498 10499 10500 10499 10498 10496 10494 10494 10494 10495 10496 10496 10497 10500 10503 10506 10505 10500 10496 10492 10489 10488 10489 10488 10487 10488 10489 10489 10488 10487 10487 10488 10488 10487 10486 10486 10485 10485 10485 10484 10484 10484 10484 10484 10484 10485 10486 10486 10486 10486 10486 10486 10486 10485 10485 10486 10485 10483 10482 10481 10479 10479 10482 10484 10482 10479 10478 10476 10473 10471 10470 10468 10467 10467 10467 10467 10466 10465
10489 10489 10488 10488 10489 10489 10489 10489 10491 10491 10490 10488 10486 10485 10485 10485 10487 10487 10487 10488 10492 10496 10497 10495 10492 10490 10488 10485 10483 10481 10480 10479 10480 10481 10481 10480 10480 10480 10480 10479 10479 10477 10476 10476 10476 10477 10476 10476 10476 10475 10475 10475 10475 10476 10477 10477 10477 10476 10476 10476 10475 10476 10476 10476 10474 10472 10471 10469 10468 10471 10474 10473 10470 10468 10467 10464 10462 10460 10457 10455 10455 10455 10455 10454 10453
10479 10480 10480 10481 10481 10481 10481 10480 10481 10482 10482 10480 10477 10475 10473 10474 10476 10477 10477 10478 10482 10485 10486 10485 10485 10483 10480 10477 10476 10475 10473 10471 10472 10472 10472 10471 10471 10471 10471 10471 10470 10468 10467 10466 10467 10468 10468 10468 10467 10467 10466 10466 10466 10466 10467 10467 10467 10467 10467 10466 10465 10465 10466 10465 10464 10463 10461 10458 10458 10459 10462 10462 10459 10458 10458 10455 10452 10450 10447 10444 10442 10441 10441 10441 10441
10469 10470 10471 10472 10473 10473 10472 10471 10470 10471 10472 10471 10469 10467 10464 10462 10463 10464 10465 10467 10470 10474 10473 10473 10474 10473 10469 10467 10467 10466 10464 10462 10463 10464 10463 10463 10463 10463 10463 10462 10461 10460 10459 10458 10458 10458 10458 10458 10458 10458 10457 10457 10456 10456 10457 10457 10457 10457 10457 10456 10454 10454 10454 10453 10453 10452 10449 10446 10446 10447 10449 10449 10447 10446 10446 10446 10443 10438 10435 10433 10431 10428 10427 10427 10427
10458 10459 10460 10461 10462 10462 10463 10462 10459 10459 10461 10460 10458 10457 10455 10452 10451 10452 10453 10455 10459 10461 10461 10461 10462 10461 10458 10456 10456 10455 10453 10452 10455 10456 10455 10455 10455 10455 10454 10454 10453 10452 10450 10449 10450 10450 10448 10448 10448 10448 10447 10447 10446 10445 10446 10446 10446 10446 10446 10444 10443 10443 10443 10442 10441 10440 10438 10435 10434 10435 10437 10437 10435 10433 10433 10435 10434 10428 10423 10420 10419 10417 10416 10416 10415